Regional Weather Roundup
Issued by NWS

Home | Current Version | Previous Version | Text Only | Print | Product List | Glossary Off
Versions: 1 2 3 4 5 6 7 8 9 10 11 12 13 14 15 16 17 18 19 20 21 22 23 24 25 26 27 28 29 30 31 32 33 34 35 36 37 38 39 40 41 42 43 44 45 46 47

000
ASUS45 KBOU 162110
RWRCO

WEATHER ROUNDUP FOR COLORADO
NATIONAL WEATHER SERVICE DENVER/BOULDER CO
200 PM MST FRI FEB 16 2018

NOTE: "FAIR" INDICATES FEW OR NO CLOUDS BELOW 12000 FEET WITH NO
SIGNIFICANT WEATHER AND/OR OBSTRUCTIONS TO VISIBILITY.

COZ001>005-013-030-031-162200-
...NORTHWEST COLORADO...

CITY           SKY/WX    TMP DP  RH WIND       PRES   REMARKS
CRAIG          FAIR      27  11  51 E8        30.11F WCI  19
HAYDEN         FAIR      26  14  60 SE5       30.11F WCI  20
MEEKER         FAIR      37  13  37 SW14G20   30.09F
RANGELY        FAIR      37  12  35 W6        30.11F
RABBIT EARS PA FAIR      18  16  93 W7        29.99F WCI   8
STEAMBOAT SPGS FAIR      22   9  58 CALM      30.08F
WALDEN         CLOUDY    30  12  47 SE16G24   30.01F WCI  19
$$

COZ006>008-011-162200-
...WEST CENTRAL VALLEYS...

CITY           SKY/WX    TMP DP  RH WIND       PRES   REMARKS
GRAND JUNCTION FAIR      38  19  46 NW10      30.19F
MONTROSE       FAIR      37  21  52 NW5       30.18F
EAGLE          FAIR      36  14  40 VRB7      30.11F
RIFLE          FAIR      32  17  54 CALM      30.16F
DELTA          FAIR      43  15  32 W3        30.17F
NUCLA          FAIR      37  18  44 CALM      30.20F
$$

COZ017>023-064>068-162200-
...SOUTHWEST COLORADO...

CITY           SKY/WX    TMP DP  RH WIND       PRES   REMARKS
DURANGO        FAIR      41  21  44 VRB6      30.17F
CORTEZ         FAIR      43  21  41 SW9       30.18F
PAGOSA SPRINGS FAIR      37  17  44 S6        30.17F
TELLURIDE      FAIR      32  13  45 W12       30.14F WCI  23
WOLF CREEK PAS CLOUDY    16  16 100 SW17G28   30.18F WCI   0
$$

COZ009-010-012-014-032>034-037-058>063-162200-
...CENTRAL COLORADO...

CITY           SKY/WX    TMP DP  RH WIND       PRES   REMARKS
ASPEN          FAIR      28  15  58 N5        30.09F WCI  23
BUENA VISTA    FAIR      44  -7  11 W15G36    30.00F
COPPER MTN     FAIR      25  -8  24 W18G25    30.04F HAZE    WCI  11
BERTHOUD PASS  FAIR      10   0  61 NW28G37   29.96F WCI -11
COTTONWOOD PAS FAIR      37  -6  15 W26G36    30.01F
GUNNISON       NOT AVBL
GRANBY         FAIR      26   7  44 E3        30.06F
KREMMLING      FAIR      36  16  44 E6        30.06F
LEADVILLE      FAIR      30   1  29 W9        30.01F WCI  22
MONARCH PASS     N/A     12  10  92 W33G41    30.18F WCI -10
SALIDA         FAIR      45   0  15 W20G31    30.08F
SUNLIGHT       FAIR      21  18  86 SW13G24     N/A  WCI   9
WILKERSON PASS FAIR      28  -9  19 SW20G29   30.01F WCI  15
$$

COZ069>075-162200-
...SAN LUIS VALLEY/SANGRE DE CRISTO MOUNTAINS...

CITY           SKY/WX    TMP DP  RH WIND       PRES   REMARKS
ALAMOSA        FAIR      42  13  30 S7        30.08F
DEL NORTE      FAIR      37  14  39 S8        30.10F
LA VETA PASS   FAIR      32  16  51 S25G47    30.14F WCI  19
SAGUACHE       FAIR      37  14  38 S13       30.10F
$$

COZ035-036-038>040-162200-
...NORTHERN COLORADO FRONT RANGE...

CITY           SKY/WX    TMP DP  RH WIND       PRES   REMARKS
DENVER INTL AP PTSUNNY   41  22  46 N12       29.93F
AURORA         PTSUNNY   42  24  49 N9        29.92F
FRONT RANGE AP PTSUNNY   43  21  42 CALM      29.93F
ERIE MUNI ARPT FAIR      38  17  41 N7        30.00F
BOULDER MUN AP FAIR      36  19  51 CALM      29.94F
CENTENNIAL     PTSUNNY   42  25  50 SE8       29.91F
BROOMFIELD     PTSUNNY   41  19  42 N7        29.93F
FORT COLLINS   FAIR      37  16  42 N8        29.95F
LONGMONT       FAIR      41  17  36 NE3       29.96F
$$

COZ041-046-047-076>085-087-088-162200-
...PIKES PEAK/PALMER DIVIDE AND SOUTHERN FOOTHILLS...

CITY           SKY/WX    TMP DP  RH WIND       PRES   REMARKS
COLO. SPRINGS  CLOUDY    28  26  92 SE10      30.03F WCI  19
A. F. ACADEMY  CLOUDY    26  23  89 SE14      29.99F WCI  15
SCHRIEVER AFB  FLURRIES  26  26  99 CALM      30.03F
CHEYENNE MTN   CLOUDY    25  25  99 SE12      29.93F WCI  14
ELLICOTT         N/A    N/A N/A N/A SW10      30.01F
FALCON         FOG       26  25  97 MISG      30.02F VSB<1/4
FORT CARSON    CLOUDY    32  26  77 S10       30.01F WCI  24
LIMON          FAIR      36  23  59 S23G37    30.02F
MONUMENT HILL  FAIR      28  23  80 S23       29.95F WCI  14
CANON CITY     SUNNY     39  27  60 S6        30.02F
WALSENBURG     NOT AVBL
TRINIDAD       FAIR      46  21  37 W5        30.01F
$$

COZ042>045-048>051-090-091-162200-
...NORTHEAST COLORADO...

CITY           SKY/WX    TMP DP  RH WIND       PRES   REMARKS
GREELEY ARPT   FAIR      37  17  44 NW5       29.97F
AKRON          FAIR      41  22  46 SW22G30   29.98F
BURLINGTON     FAIR      40  15  36 S24G33    30.08F
WRAY           FAIR      46  18  31 S22       30.05F
YUMA           FAIR      41  21  45 S20G28    30.01F
STERLING       FAIR      45  23  42 SW17      29.98F
HOLYOKE        FAIR      43  19  39 S17G24    30.05F
FORT MORGAN    FAIR      45  17  33 S5        29.97F
$$

COZ086-089-092>099-162200-
...SOUTHEAST COLORADO...

CITY           SKY/WX    TMP DP  RH WIND       PRES   REMARKS
PUEBLO         FAIR      40  30  67 E6        30.03F
LA JUNTA       FAIR      49  21  33 SE16      30.04F
LAMAR          FAIR      45  13  27 S17G23    30.10F
SPRINGFIELD      N/A     41  15  35 S22G31    30.13F
$$




USA.gov is the U.S. government's official web portal to all federal, state and local government web resources and services.